Weather in Zacatecas

Mexico     22°45′58″N   102°34′38″W
temp.,
°C
wind,
m/s
gust,
m/s
humid.,
%
clouds,
%
prec.,
mm/h
press.,
hPa
HPBL,
m
12 may, wed
wed1201:00+18sse006281 0.0 101562
04:00+16ssw126559 0.0 101515
07:00+17wsw226499 0.0 101639
10:00+17nne556274 1.7 1019531
13:00+21nne334545 2.4 10171395
16:00+20wnw444393 0.0 10151177
19:00+22nnw233421 0.0 1013986
22:00+15ese896723 0.1 1019359
13 may, thu
thu1301:00+13ese9136635 0.1 1021557
04:00+12se5117312 0.0 1020413
07:00+12ese247443 0.0 1021178
10:00+16se455876 0.0 1021490
13:00+20ese444516 0.0 10191350
16:00+23e6433100 0.0 10142830
19:00+20e7644100 0.1 10151439
22:00+15ese1011677 0.3 1018612
14 may, fri
fri1401:00+14se5872100 1.4 1021615
04:00+13se467699 0.0 1020644
07:00+12se358015 0.0 1021256
10:00+16sse33637 0.0 1020592
13:00+21sse11438 0.0 10171711
16:00+22wnw1236100 0.3 10141946
19:00+23ese3336100 0.5 10122227
22:00+16se8107163 1.2 1017516
15 may, sat
sat1501:00+16ese456932 1.3 1018444
04:00+14se227546 0.0 1017110
07:00+14sse237448 0.1 101888
10:00+19sw45540 0.4 1017680
13:00+24wsw65315 0.5 10152815
16:00+26wsw55215 0.0 10113284
19:00+26w651721 0.0 10093299
22:00+20w812284 0.0 1012374
16 may, sun
sun1601:00+17ese224423 0.0 101555
04:00+16sw225029 0.0 101517
07:00+15sw22482 0.0 101620
10:00+20sw3432100 0.0 1017626
13:00+24wsw43201 0.0 10142043
16:00+26w531699 0.0 10113048
19:00+26w32155 0.0 10102794
22:00+23wsw331827 0.0 101127